Location: Wallasey
(53.4265°N, 3.0662°W)
Time: 23:21:02
(UTC+01:00)

AO-91 - Visible Passes

Search period start: 19 August 2019 00:00
Search period end: 29 August 2019 00:00
Orbit: 453 x 814 km, 97.7° (Epoch: 18 August)

Date Brightness Start Highest point End Pass type
(mag) Time Alt. Az. Time Alt. Az. Time Alt. Az.
19 Aug ? 00:58:52 10° NNE 01:03:37 32° E 01:04:27 31° ESE visible
19 Aug ? 02:35:03 10° N 02:40:10 52° WNW 02:41:54 37° WSW visible
19 Aug ? 04:13:12 10° NNW 04:15:31 13° NW 04:17:52 10° WNW visible
20 Aug ? 01:20:10 10° NNE 01:25:17 46° E 01:26:08 43° SE visible
20 Aug ? 02:56:44 10° N 03:01:34 37° WNW 03:03:35 28° WSW visible
21 Aug ? 00:07:06 10° NE 00:09:37 13° E 00:10:23 13° E visible
21 Aug ? 01:41:35 10° NNE 01:46:55 67° ESE 01:47:49 57° SSE visible
21 Aug ? 03:18:30 10° N 03:22:54 27° WNW 03:25:16 20° W visible
22 Aug ? 00:27:39 10° NE 00:31:28 19° E 00:32:04 19° E visible
22 Aug ? 02:03:05 10° NNE 02:08:28 86° WNW 02:09:30 60° SSW visible
22 Aug ? 03:40:22 10° N 03:44:11 20° NW 03:46:57 14° W visible
23 Aug ? 00:48:40 10° NNE 00:53:15 28° E 00:53:44 27° E visible
23 Aug ? 02:24:40 10° N 02:29:58 61° WNW 02:31:11 48° WSW visible
23 Aug ? 04:02:25 10° NNW 04:05:23 15° NW 04:08:21 10° W visible
24 Aug ? 01:09:56 10° NNE 01:14:59 39° E 01:15:25 39° ESE visible
24 Aug ? 02:46:19 10° N 02:51:23 43° WNW 02:52:51 35° WSW visible
24 Aug ? 04:24:57 10° NNW 04:26:32 11° NW 04:28:06 10° WNW visible
24 Aug ? 23:57:45 10° ENE 23:59:07 11° E 23:59:38 11° E visible
25 Aug ? 01:31:18 10° NNE 01:36:38 57° E 01:37:05 55° ESE visible
25 Aug ? 03:08:03 10° N 03:12:44 31° WNW 03:14:32 25° W visible
26 Aug ? 00:17:43 10° NE 00:21:02 16° E 00:21:19 16° E visible
26 Aug ? 01:52:46 10° NNE 01:58:13 81° ESE 01:58:45 72° SSE visible
26 Aug ? 03:29:52 10° N 03:34:01 23° NW 03:36:12 18° W visible
27 Aug ? 00:38:35 10° NE 00:42:52 23° E 00:42:58 23° E visible
27 Aug ? 02:14:20 10° N 02:19:44 72° WNW 02:20:25 63° WSW visible
27 Aug ? 03:51:49 10° NNW 03:55:15 17° NW 03:57:52 13° W visible
28 Aug ? 00:59:45 10° NNE 01:04:38 33° E 01:04:38 33° E visible
28 Aug ? 02:35:58 10° N 02:41:11 50° WNW 02:42:04 45° W visible
28 Aug ? 04:14:04 10° NNW 04:16:24 13° NW 04:18:44 10° WNW visible
